Driggs, ID

10:08 AM MDT on July 26, 2017 (GMT -0600)
Driggs

Weather History for KDIJ - May, 2012

Change the Weather History Date:

Wednesday, May 23, 2012

  Actual Average (KJAC) Record (KJAC)
Temperature  
Mean Temperature 42 °F -  
Max Temperature 52 °F 63 °F 80 °F (1967)
Min Temperature 31 °F 32 °F 15 °F (1966)
Degree Days  
Heating Degree Days 23    
Moisture  
Dew Point 33 °F    
Average Humidity 80    
Maximum Humidity 96    
Minimum Humidity 43    
Precipitation  
Precipitation 0.18 in - - ()
Sea Level Pressure  
Sea Level Pressure 29.75 in    
Wind  
Wind Speed 8 mph (SSW)    
Max Wind Speed 23 mph    
Max Gust Speed -    
Visibility 7 miles    
Events Fog , Rain , Snow    
Averages and records for this station are not official NWS values.
T = Trace of Precipitation, MM = Missing Value Source: NWS Daily Summary

Daily Weather History Graph

Daily Weather History Graph

Search for Another Location

Airport or City:

Trip Planner

Search our weather history database for the weather conditions in past years. The results will help you decide how hot, cold, wet, or windy it might be!

Date:

Astronomy

May. 23, 2012 Rise Set
Actual Time 5:51 AM MDT 8:51 PM MDT
Civil Twilight 5:16 AM MDT 9:26 PM MDT
Nautical Twilight 4:33 AM MDT 10:10 PM MDT
Astronomical Twilight 3:41 AM MDT 11:02 PM MDT
Moon 7:57 AM MDT (5/23) 11:15 PM MDT (5/23)
Length of Visible Light 16h 09m
Length of Day
15h 00m
Waxing Crescent, 7% of the Moon is Illuminated
May 23
Waxing Crescent
May 28
First Quarter
Jun 4
Full
Jun 11
Last Quarter
Jun 19
New

Hourly Weather History & Observations

Time (MDT) Temp. Windchill Dew Point Humidity Pressure Visibility Wind Dir Wind Speed Gust Speed Precip Events Conditions
12:56 AM 41.0 °F 35.8 °F 26.1 °F 55% 29.65 in 10.0 mi South 8.1 mph - N/A   Partly Cloudy
1:56 AM 43.0 °F 39.5 °F 27.1 °F 54% 29.63 in 10.0 mi South 5.8 mph - N/A   Overcast
2:56 AM 43.9 °F - 27.1 °F 52% 29.61 in 10.0 mi Calm Calm - N/A   Mostly Cloudy
4:56 AM 43.0 °F 38.8 °F 29.1 °F 58% 29.62 in 10.0 mi South 6.9 mph - N/A   Overcast
5:56 AM 41.9 °F 36.3 °F 31.1 °F 66% 29.64 in 10.0 mi SSW 9.2 mph - 0.00 in   Overcast
6:56 AM 38.8 °F 33.8 °F 32.9 °F 79% 29.68 in 10.0 mi South 6.9 mph - 0.00 in Rain Light Rain
7:33 AM 37.4 °F 32.8 °F 35.6 °F 93% 29.83 in 10.0 mi SE 5.8 mph - 0.00 in   Overcast
7:56 AM 39.9 °F 35.1 °F 34.9 °F 82% 29.67 in 10.0 mi SSE 6.9 mph - 0.00 in   Overcast
8:44 AM 41.0 °F 33.5 °F 35.6 °F 81% 29.84 in 10.0 mi SW 13.8 mph - 0.00 in Rain Light Rain
8:56 AM 39.9 °F 32.9 °F 34.9 °F 82% 29.69 in 4.0 mi SSW 11.5 mph - 0.01 in Rain Light Rain
9:17 AM 39.2 °F 31.2 °F 35.6 °F 87% 29.83 in 10.0 mi South 13.8 mph - 0.00 in   Overcast
9:56 AM 41.9 °F 34.3 °F 36.0 °F 79% 29.68 in 10.0 mi SSW 15.0 mph - 0.00 in Rain Light Rain
10:06 AM 39.2 °F 31.6 °F 35.6 °F 87% 29.83 in 4.0 mi WSW 12.7 mph - 0.02 in Rain Light Rain
10:09 AM 39.2 °F 33.0 °F 33.8 °F 81% 29.83 in 1.5 mi WSW 9.2 mph - 0.03 in Rain Light Rain
10:12 AM 37.4 °F 32.1 °F 33.8 °F 87% 29.83 in 1.0 mi WSW 6.9 mph - 0.04 in Rain Light Rain
10:17 AM 37.4 °F 31.4 °F 33.8 °F 87% 29.82 in 1.2 mi NW 8.1 mph - 0.06 in Rain Rain
10:21 AM 37.4 °F 32.8 °F 33.8 °F 87% 29.82 in 2.0 mi WNW 5.8 mph - 0.07 in Rain Rain
10:29 AM 37.4 °F 34.9 °F 35.6 °F 93% 29.82 in 10.0 mi SW 3.5 mph - 0.07 in Rain Light Rain
10:56 AM 43.9 °F 39.3 °F 38.8 °F 82% 29.69 in 10.0 mi South 8.1 mph - 0.08 in   Scattered Clouds
11:56 AM 46.9 °F - 36.0 °F 66% 29.65 in 10.0 mi SW 9.2 mph - 0.00 in   Mostly Cloudy
12:56 PM 47.8 °F - 32.9 °F 56% 29.63 in 10.0 mi SSW 11.5 mph - N/A   Scattered Clouds
1:27 PM 51.8 °F - 32.0 °F 47% 29.76 in 10.0 mi SSW 20.7 mph - N/A   Mostly Cloudy
1:56 PM 52.0 °F - 30.0 °F 43% 29.61 in 10.0 mi WSW 21.9 mph - N/A   Partly Cloudy
2:56 PM 41.0 °F 31.1 °F 34.0 °F 76% 29.68 in 10.0 mi North 23.0 mph - N/A   Mostly Cloudy
3:03 PM 41.0 °F 31.9 °F 33.8 °F 76% 29.80 in 10.0 mi North 19.6 mph - N/A   Mostly Cloudy
3:56 PM 43.0 °F 36.4 °F 34.0 °F 71% 29.68 in 10.0 mi North 12.7 mph - N/A   Mostly Cloudy
4:56 PM 43.9 °F 41.3 °F 32.9 °F 65% 29.68 in 10.0 mi Variable 4.6 mph - 0.00 in Rain Light Rain
5:04 PM 42.8 °F 36.2 °F 33.8 °F 70% 29.80 in 10.0 mi SSW 12.7 mph - 0.00 in Rain Light Rain
5:22 PM 42.8 °F 39.3 °F 32.0 °F 66% 29.81 in 10.0 mi SW 5.8 mph - 0.00 in   Mostly Cloudy
5:56 PM 41.9 °F 35.4 °F 34.9 °F 76% 29.70 in 10.0 mi NNE 11.5 mph - 0.00 in Rain Light Rain
6:56 PM 39.9 °F 35.1 °F 34.0 °F 79% 29.72 in 10.0 mi Variable 6.9 mph - 0.00 in Rain Light Rain
7:16 PM 37.4 °F 28.9 °F 33.8 °F 87% 29.82 in 10.0 mi WNW 13.8 mph - 0.00 in Rain Light Rain
7:26 PM 37.4 °F 32.1 °F 33.8 °F 87% 29.82 in 10.0 mi WSW 6.9 mph - 0.01 in Rain Light Rain
7:45 PM 35.6 °F - 33.8 °F 93% 29.82 in 8.0 mi Calm Calm - 0.04 in Snow Light Snow
7:56 PM 34.9 °F - 32.9 °F 92% 29.75 in 3.0 mi Calm Calm - 0.05 in Snow Light Snow
8:04 PM 35.6 °F - 33.8 °F 93% 29.83 in 2.5 mi Calm Calm - 0.01 in Snow Light Snow
8:24 PM 33.8 °F 29.6 °F 32.0 °F 93% 29.82 in 3.0 mi East 4.6 mph - 0.03 in Snow Light Snow
8:32 PM 33.8 °F - 32.0 °F 93% 29.83 in 1.8 mi Calm Calm - 0.04 in Snow Light Snow
8:35 PM 33.8 °F - 32.0 °F 93% 29.83 in 1.0 mi Calm Calm - 0.04 in Snow Light Snow
8:43 PM 33.8 °F - 32.0 °F 93% 29.83 in 0.5 mi Calm Calm - 0.04 in Fog , Snow Snow
8:56 PM 32.9 °F - 32.0 °F 96% 29.76 in 0.2 mi Calm Calm - 0.04 in Fog , Snow Snow
9:27 PM 33.8 °F 29.6 °F 32.0 °F 93% 29.82 in 1.0 mi SE 4.6 mph - 0.00 in Snow Light Snow
9:30 PM 33.8 °F 29.6 °F 32.0 °F 93% 29.82 in 1.5 mi SSE 4.6 mph - 0.00 in Snow Light Snow
9:35 PM 33.8 °F 29.6 °F 32.0 °F 93% 29.83 in 3.0 mi South 4.6 mph - 0.00 in Snow Light Snow
9:56 PM 32.9 °F 28.5 °F 32.0 °F 96% 29.75 in 10.0 mi South 4.6 mph - 0.00 in   Overcast
10:14 PM 33.8 °F 30.8 °F 32.0 °F 93% 29.82 in 10.0 mi South 3.5 mph - N/A   Overcast
10:56 PM 34.0 °F 29.8 °F 32.9 °F 96% 29.74 in 10.0 mi SW 4.6 mph - N/A   Overcast
11:56 PM 31.1 °F 26.4 °F 30.0 °F 96% 29.74 in 10.0 mi ENE 4.6 mph - N/A   Scattered Clouds